Location: Wien
(48.2082°N, 16.3738°E)
Time: 08:42:49
(UTC+01:00)

Vanguard 3 - Visible Passes

Search period start: 25 February 2024 00:00
Search period end: 06 March 2024 00:00
Orbit: 508 x 3239 km, 33.4° (Epoch: 24 February)

Date Brightness Start Highest point End Pass type
(mag) Time Alt. Az. Time Alt. Az. Time Alt. Az.
25 Feb 10.8 18:14:28 10° S 18:27:12 23° SE 18:38:40 12° E visible
25 Feb 10.2 20:23:18 10° SW 20:40:35 41° SSE 20:42:59 39° SSE visible
25 Feb 10.5 22:36:51 10° WSW 22:47:18 34° SW 22:47:18 34° SW visible
26 Feb 10.5 19:05:59 10° SSW 19:21:34 33° SSE 19:30:21 24° ESE visible
26 Feb 10.1 21:17:32 10° WSW 21:34:39 47° S 21:34:39 47° S visible
26 Feb 10.9 23:32:27 10° WSW 23:38:57 24° WSW 23:38:57 24° WSW visible
27 Feb 10.9 17:50:14 10° S 18:03:00 24° SE 18:16:32 10° E visible
27 Feb 10.2 19:59:11 10° SW 20:16:22 42° SSE 20:21:57 36° SE visible
27 Feb 10.3 22:12:31 10° WSW 22:26:14 43° SW 22:26:14 43° SW visible
28 Feb 11.2 00:28:31 10° W 00:30:33 14° W 00:30:33 14° W visible
28 Feb 10.6 18:41:59 10° SSW 18:57:18 35° SSE 19:09:11 19° ESE visible
28 Feb 10.0 20:53:24 10° WSW 21:11:28 48° S 21:13:29 47° SSE visible
28 Feb 10.6 23:08:03 10° W 23:17:46 32° WSW 23:17:46 32° WSW visible
29 Feb 10.3 19:35:14 10° SW 19:52:05 44° SSE 20:00:39 31° ESE visible
29 Feb 10.1 21:48:20 10° WSW 22:04:57 48° SSW 22:04:57 48° SSW visible
01 Mar 11.0 00:04:05 10° W 00:09:14 20° WSW 00:09:14 20° WSW visible
01 Mar 10.6 18:18:12 10° SSW 18:33:01 36° SSE 18:47:47 14° E visible
01 Mar 10.1 20:29:27 10° WSW 20:47:12 49° S 20:52:04 43° SE visible
01 Mar 10.4 22:43:47 10° W 22:56:22 38° SW 22:56:22 38° SW visible
02 Mar 10.4 19:11:30 10° SW 19:27:46 45° SSE 19:39:09 25° ESE visible
02 Mar 10.1 21:24:18 10° WSW 21:42:24 49° S 21:43:25 49° S visible
02 Mar 10.8 23:39:45 10° W 23:47:42 26° WSW 23:47:42 26° WSW visible
03 Mar 10.5 17:54:37 10° SSW 18:08:46 37° SSE 18:25:31 10° E visible
03 Mar 10.2 20:05:40 10° WSW 20:22:52 50° S 20:30:28 37° SE visible
03 Mar 10.3 22:19:39 10° W 22:34:44 43° SW 22:34:44 43° SW visible
04 Mar 11.2 00:36:37 10° W 00:39:01 14° W 00:39:01 14° W visible
04 Mar 10.4 18:47:57 10° SW 19:03:27 45° SSE 19:17:28 19° ESE visible
04 Mar 10.1 21:00:25 10° WSW 21:18:05 49° S 21:21:44 46° SSE visible
04 Mar 10.7 23:15:33 10° W 23:26:01 30° WSW 23:26:01 30° WSW visible
05 Mar 10.3 19:42:03 10° WSW 19:58:32 50° S 20:08:43 30° ESE visible
05 Mar 10.2 21:55:40 10° W 22:12:59 44° SSW 22:12:59 44° SSW visible
